Tracking 29892 objects as of 21-Nov-2024
HD Live streaming from Space Station
objects crossing your sky now

TITAN 3C TRANSTAGE R/B

Track TITAN 3C TRANSTAGE R/B now!


NORAD ID: 3432
Int'l Code: 1968-081E
Perigee: 35,047.7 km
Apogee: 35,847.6 km
Inclination: 1.1 °
Period: 1,418.5 minutes
Semi major axis: 41818 km
RCS: 1.592 m2 (large)
Launch date: September 26, 1968
Source: United States (US)
Launch site: AIR FORCE EASTERN TEST RANGE (AFETR)

Note: This is a ROCKET BODY
Your satellite tracking list
Your tracking list is empty




NASA's NSSDC Master Catalog

Two Line Element Set (TLE):
1 03432U 68081E   24325.69662307 -.00000057  00000-0  00000-0 0  9993
2 03432   1.0683  13.2201 0095647 302.9076 216.8391  1.01519196116167
Source of the keplerian elements: AFSPC